Search your local weather  

 

Hazardous Weather Conditions

No active alerts for SAN ANTONIO, TEXAS

Current Conditions: SAN ANTONIO, TEXAS

Partly Cloudy


72.0 F

Last Updated on May 21 2022, 2:55 am CDT
Humidity: 100%
Wind Speed: S 4.6 mph
Barometer 29.78 in
Dewpoint: 71.6 F
Visibility: 7.00 mi
Precip: --
Heat Index: NA
Wind Chill: NA
Current conditions at:

San Antonio Boerne Stage Field, TX (K5C1)

Lat: 29.7239 Lon: -98.6946

Local Radar Image active severe weather and emergency alerts image image weather storm and storm spotter reports image weather observation monitoring service image
Local
Radar
Active
Alerts
Storm Reports Weather
Monitoring

5 Day Forecast for SAN ANTONIO, TEXAS (78201)

Saturday

Isolated T-storm

High 99 °F
Saturday
Night
Chance of T-storms

Low 69 °F
Sunday

Chance of T-storms

High 85 °F
Sunday
Night
Isolated T-storm

Low 72 °F
Monday

T-storms Likely

High 85 °F
Monday
Night
T-storms


Low 72 °F
Tuesday

T-storms Likely

High 83 °F
Tuesday
Night
Chance of T-storms

Low 72 °F
Wednesday

Chance of T-storms

High 86 °F

Sign-up For Email & Text Message Weather Alert Notification Services



Advertise Here

Observation History for SAN ANTONIO, TEXAS


Time Wind
(mph)
Vis
(mi)
Weather Precip (in) Temperature (F) Relative
Humidity
Wind
Chill
(F)
Heat
Index
(F)
Pressure
Air Dwpt altimeter
(in)
sea level
(mb)
2:55 am CDT S 4.6 7.00 Partly Cloudy -- 72.0 71.6 100% NA NA 29.78 M
2:15 am CDT S 5.8 10.00 Partly Cloudy -- 72.0 71.6 100% NA NA 29.78 M
1:55 am CDT S 8.1 10.00 Partly Cloudy -- 73.0 71.6 94% NA NA 29.78 M
1:35 am CDT S 8.1 10.00 Mostly Cloudy -- 73.0 71.6 94% NA NA 29.77 M
1:15 am CDT S 11.5 G 17.3 10.00 Overcast -- 73.0 71.6 94% NA NA 29.77 M
12:55 am CDT S 10.4 G 16.1 10.00 Overcast -- 73.0 71.6 94% NA NA 29.77 M
12:15 am CDT SE 6.9 10.00 Mostly Cloudy -- 73.0 71.6 94% NA NA 29.76 M
11:55 pm CDT SE 10.4 G 17.3 10.00 Partly Cloudy -- 73.0 71.6 94% NA NA 29.75 M
11:35 pm CDT S 11.5 G 18.4 10.00 Mostly Cloudy -- 75.0 71.6 89% NA NA 29.77 M
11:15 pm CDT S 13.8 10.00 Fair -- 75.0 71.6 89% NA NA 29.76 M
10:55 pm CDT S 11.5 G 17.3 10.00 Partly Cloudy -- 77.0 71.6 83% NA NA 29.76 M
10:35 pm CDT S 9.2 10.00 Partly Cloudy -- 77.0 71.6 83% NA NA 29.75 M
9:35 pm CDT S 9.2 10.00 Fair -- 77.0 71.6 83% NA NA 29.70 M
9:15 pm CDT SE 8.1 G 18.4 10.00 Fair -- 79.0 71.6 79% NA NA 29.68 M
8:55 pm CDT SE 9.2 G 16.1 10.00 Fair -- 79.0 71.6 79% NA NA 29.67 M
8:35 pm CDT SE 9.2 7.00 Fair -- 81.0 71.6 74% NA 85 29.67 M
8:15 pm CDT SE 10.4 7.00 Fair -- 81.0 71.6 74% NA 85 29.67 M
7:55 pm CDT SE 9.2 7.00 Fair -- 82.0 71.6 70% NA 86 29.66 M
7:35 pm CDT SE 13.8 G 20.7 7.00 Partly Cloudy -- 82.0 71.6 70% NA 86 29.66 M
7:15 pm CDT SE 17.3 G 21.9 7.00 Partly Cloudy -- 84.0 71.6 66% NA 89 29.66 M
6:55 pm CDT SE 13.8 G 24.2 10.00 Fair -- 86.0 71.6 62% NA 92 29.65 M
4:55 pm CDT SE 4.6 10.00 Fair -- 86.0 69.8 59% NA 91 29.64 M
4:15 pm CDT SW 9.2 10.00 Partly Cloudy -- 81.0 69.8 70% NA 85 29.66 M
3:55 pm CDT NE 11.5 7.00 Partly Cloudy -- 81.0 69.8 70% NA 85 29.62 M

Regional Weather Observation

San Antonio, San Antonio International Airport, TX (KSAT)

Mostly Cloudy
77.0 F

Castroville Municipal Airport, TX (KCVB)

Fair
91.0 F

San Antonio - Kelly Field, TX (KSKF)

Partly Cloudy
76.0 F

San Antonio, Stinson Municipal Airport, TX (KSSF)

Overcast
80.0 F

Randolph Air Force Base, TX (KRND)

Overcast
73.0 F

New Braunfels Regional Airport, TX (KBAZ)

Fog/Mist
76.0 F

Advertise Here


Advertise Here